Time,TemperatureF,DewpointF,PressureIn,WindDirection,WindDirectionDegrees,WindSpeedMPH,WindSpeedGustMPH,Humidity,HourlyPrecipIn,Conditions,Clouds,dailyrainin,SoftwareType,DateUTC
2013-04-10 00:02:00,71.7,66.0,29.83,SSE,153,12.0,-999.0,81,-99.99,,,0.00,weatherlink.com 1.10,2013-04-10 05:02:00,
2013-04-10 00:17:00,72.0,66.0,29.83,SSE,155,9.0,-999.0,81,-99.99,,,0.00,weatherlink.com 1.10,2013-04-10 05:17:00,
2013-04-10 00:32:00,72.7,66.0,29.84,SSE,153,8.0,-999.0,79,-99.99,,,0.00,weatherlink.com 1.10,2013-04-10 05:32:00,
2013-04-10 00:47:00,73.1,66.0,29.85,SE,140,12.0,-999.0,78,-99.99,,,0.00,weatherlink.com 1.10,2013-04-10 05:47:00,
2013-04-10 01:02:00,73.1,66.0,29.85,SSE,164,10.0,-999.0,78,-99.99,,,0.00,weatherlink.com 1.10,2013-04-10 06:02:00,
2013-04-10 01:17:00,73.4,66.0,29.85,SSE,162,8.0,-999.0,78,-99.99,,,0.00,weatherlink.com 1.10,2013-04-10 06:17:00,
2013-04-10 01:32:00,73.5,66.0,29.84,South,169,15.0,-999.0,78,-99.99,,,0.00,weatherlink.com 1.10,2013-04-10 06:32:00,
2013-04-10 01:47:00,73.4,66.0,29.84,SSE,165,3.0,-999.0,78,-99.99,,,0.00,weatherlink.com 1.10,2013-04-10 06:47:00,
2013-04-10 02:02:00,73.6,66.0,29.83,South,188,7.0,-999.0,78,-99.99,,,0.00,weatherlink.com 1.10,2013-04-10 07:02:00,
2013-04-10 02:17:00,73.3,66.0,29.82,SSE,164,12.0,-999.0,78,-99.99,,,0.00,weatherlink.com 1.10,2013-04-10 07:17:00,
2013-04-10 02:32:00,73.4,66.0,29.82,South,180,5.0,-999.0,78,-99.99,,,0.00,weatherlink.com 1.10,2013-04-10 07:32:00,
2013-04-10 02:47:00,73.2,66.0,29.82,South,175,11.0,-999.0,79,-99.99,,,0.00,weatherlink.com 1.10,2013-04-10 07:47:00,
2013-04-10 03:02:00,73.0,67.0,29.82,SSW,194,8.0,-999.0,80,-99.99,,,0.00,weatherlink.com 1.10,2013-04-10 08:02:00,
2013-04-10 03:17:00,72.8,66.0,29.82,SSE,159,13.0,-999.0,80,-99.99,,,0.00,weatherlink.com 1.10,2013-04-10 08:17:00,
2013-04-10 03:32:00,72.4,66.0,29.82,SSW,196,18.0,-999.0,81,-99.99,,,0.00,weatherlink.com 1.10,2013-04-10 08:32:00,
2013-04-10 03:47:00,72.2,66.0,29.82,SSW,198,15.0,-999.0,82,-99.99,,,0.00,weatherlink.com 1.10,2013-04-10 08:47:00,
2013-04-10 04:02:00,72.1,66.0,29.83,South,175,11.0,-999.0,82,-99.99,,,0.00,weatherlink.com 1.10,2013-04-10 09:02:00,
2013-04-10 04:17:00,72.0,67.0,29.83,South,178,9.0,-999.0,83,-99.99,,,0.00,weatherlink.com 1.10,2013-04-10 09:17:00,
2013-04-10 04:32:00,72.0,66.0,29.83,SSE,164,6.0,-999.0,82,-99.99,,,0.00,weatherlink.com 1.10,2013-04-10 09:32:00,
2013-04-10 04:47:00,71.9,66.0,29.83,South,180,18.0,-999.0,82,-99.99,,,0.00,weatherlink.com 1.10,2013-04-10 09:47:00,
2013-04-10 05:02:00,71.6,66.0,29.83,SSW,194,10.0,-999.0,83,-99.99,,,0.00,weatherlink.com 1.10,2013-04-10 10:02:00,
2013-04-10 05:17:00,71.7,66.0,29.84,SSE,157,11.0,-999.0,83,-99.99,,,0.00,weatherlink.com 1.10,2013-04-10 10:17:00,
2013-04-10 05:32:00,71.5,66.0,29.84,SSE,164,6.0,-999.0,83,-99.99,,,0.00,weatherlink.com 1.10,2013-04-10 10:32:00,
2013-04-10 05:47:00,71.4,66.0,29.84,South,172,7.0,-999.0,83,-99.99,,,0.00,weatherlink.com 1.10,2013-04-10 10:47:00,
2013-04-10 06:02:00,71.1,66.0,29.85,South,171,4.0,-999.0,84,-99.99,,,0.00,weatherlink.com 1.10,2013-04-10 11:02:00,
2013-04-10 06:17:00,70.8,66.0,29.86,SSE,157,6.0,-999.0,84,-99.99,,,0.00,weatherlink.com 1.10,2013-04-10 11:17:00,
2013-04-10 06:32:00,70.5,66.0,29.86,South,176,3.0,-999.0,85,-99.99,,,0.00,weatherlink.com 1.10,2013-04-10 11:32:00,
2013-04-10 06:47:00,70.4,66.0,29.86,SSE,164,3.0,-999.0,85,-99.99,,,0.00,weatherlink.com 1.10,2013-04-10 11:47:00,
2013-04-10 07:02:00,70.2,66.0,29.86,South,183,4.0,-999.0,86,-99.99,,,0.00,weatherlink.com 1.10,2013-04-10 12:02:00,
2013-04-10 07:17:00,70.5,66.0,29.87,South,183,6.0,-999.0,85,-99.99,,,0.00,weatherlink.com 1.10,2013-04-10 12:17:00,
2013-04-10 07:47:00,71.5,67.0,29.87,South,178,3.0,-999.0,84,-99.99,,,0.00,weatherlink.com 1.10,2013-04-10 12:47:00,
2013-04-10 08:02:00,72.3,67.0,29.87,South,180,8.0,-999.0,83,-99.99,,,0.00,weatherlink.com 1.10,2013-04-10 13:02:00,
2013-04-10 08:17:00,73.1,67.0,29.87,South,179,9.0,-999.0,82,-99.99,,,0.00,weatherlink.com 1.10,2013-04-10 13:17:00,
2013-04-10 08:32:00,73.1,67.0,29.87,SSW,200,14.0,-999.0,81,-99.99,,,0.00,weatherlink.com 1.10,2013-04-10 13:32:00,
2013-04-10 08:47:00,73.2,67.0,29.87,South,171,6.0,-999.0,81,-99.99,,,0.00,weatherlink.com 1.10,2013-04-10 13:47:00,
2013-04-10 09:02:00,73.5,67.0,29.88,South,183,6.0,-999.0,80,-99.99,,,0.00,weatherlink.com 1.10,2013-04-10 14:02:00,
2013-04-10 09:17:00,73.7,67.0,29.89,South,180,16.0,-999.0,80,-99.99,,,0.00,weatherlink.com 1.10,2013-04-10 14:17:00,
2013-04-10 09:47:00,74.2,67.0,29.89,South,175,5.0,-999.0,79,-99.99,,,0.00,weatherlink.com 1.10,2013-04-10 14:47:00,
2013-04-10 10:02:00,74.9,68.0,29.89,SSE,161,12.0,-999.0,78,-99.99,,,0.00,weatherlink.com 1.10,2013-04-10 15:02:00,
2013-04-10 10:17:00,75.3,68.0,29.89,SSE,160,11.0,-999.0,77,-99.99,,,0.00,weatherlink.com 1.10,2013-04-10 15:17:00,
2013-04-10 10:32:00,76.1,68.0,29.89,SSE,156,6.0,-999.0,77,-99.99,,,0.00,weatherlink.com 1.10,2013-04-10 15:32:00,
2013-04-10 10:47:00,76.8,68.0,29.89,SSE,152,10.0,-999.0,74,-99.99,,,0.00,weatherlink.com 1.10,2013-04-10 15:47:00,
2013-04-10 11:17:00,77.0,68.0,29.88,South,172,12.0,-999.0,73,-99.99,,,0.00,weatherlink.com 1.10,2013-04-10 16:17:00,
2013-04-10 11:32:00,77.6,68.0,29.88,SSE,153,11.0,-999.0,73,-99.99,,,0.00,weatherlink.com 1.10,2013-04-10 16:32:00,
2013-04-10 11:47:00,78.4,68.0,29.88,SSW,213,15.0,-999.0,71,-99.99,,,0.00,weatherlink.com 1.10,2013-04-10 16:47:00,
2013-04-10 12:02:00,77.8,68.0,29.88,South,190,12.0,-999.0,72,-99.99,,,0.00,weatherlink.com 1.10,2013-04-10 17:02:00,
2013-04-10 12:17:00,78.7,69.0,29.88,SE,145,21.0,-999.0,71,-99.99,,,0.00,weatherlink.com 1.10,2013-04-10 17:17:00,
2013-04-10 12:32:00,78.9,68.0,29.87,SSW,194,5.0,-999.0,69,-99.99,,,0.00,weatherlink.com 1.10,2013-04-10 17:32:00,
2013-04-10 12:47:00,78.7,68.0,29.86,SSW,205,13.0,-999.0,69,-99.99,,,0.00,weatherlink.com 1.10,2013-04-10 17:47:00,
2013-04-10 13:17:00,80.8,68.0,29.84,South,180,18.0,-999.0,66,-99.99,,,0.00,weatherlink.com 1.10,2013-04-10 18:17:00,
2013-04-10 13:32:00,81.2,69.0,29.83,South,175,6.0,-999.0,66,-99.99,,,0.00,weatherlink.com 1.10,2013-04-10 18:32:00,
2013-04-10 13:47:00,81.3,68.0,29.83,SSE,163,19.0,-999.0,65,-99.99,,,0.00,weatherlink.com 1.10,2013-04-10 18:47:00,
2013-04-10 14:02:00,82.4,69.0,29.82,South,169,9.0,-999.0,63,-99.99,,,0.00,weatherlink.com 1.10,2013-04-10 19:02:00,
2013-04-10 14:17:00,82.0,67.0,29.81,SSW,203,9.0,-999.0,61,-99.99,,,0.00,weatherlink.com 1.10,2013-04-10 19:17:00,
2013-04-10 14:32:00,81.9,67.0,29.80,SSE,153,19.0,-999.0,61,-99.99,,,0.00,weatherlink.com 1.10,2013-04-10 19:32:00,
2013-04-10 14:47:00,82.7,68.0,29.80,SSE,155,16.0,-999.0,61,-99.99,,,0.00,weatherlink.com 1.10,2013-04-10 19:47:00,
2013-04-10 15:02:00,82.0,67.0,29.80,SSW,194,5.0,-999.0,61,-99.99,,,0.00,weatherlink.com 1.10,2013-04-10 20:02:00,
2013-04-10 15:17:00,82.1,67.0,29.78,SSW,201,9.0,-999.0,60,-99.99,,,0.00,weatherlink.com 1.10,2013-04-10 20:17:00,
2013-04-10 15:32:00,81.6,68.0,29.77,SSE,161,9.0,-999.0,64,-99.99,,,0.00,weatherlink.com 1.10,2013-04-10 20:32:00,
2013-04-10 16:17:00,81.1,67.0,29.75,South,170,8.0,-999.0,63,-99.99,,,0.00,weatherlink.com 1.10,2013-04-10 21:17:00,
2013-04-10 16:32:00,81.3,67.0,29.74,South,169,22.0,-999.0,62,-99.99,,,0.00,weatherlink.com 1.10,2013-04-10 21:32:00,
2013-04-10 16:47:00,81.2,67.0,29.74,SE,130,29.0,-999.0,62,-99.99,,,0.00,weatherlink.com 1.10,2013-04-10 21:47:00,
2013-04-10 17:02:00,81.4,67.0,29.73,SSE,153,3.0,-999.0,62,-99.99,,,0.00,weatherlink.com 1.10,2013-04-10 22:02:00,
2013-04-10 17:17:00,81.4,67.0,29.73,SSE,149,19.0,-999.0,62,-99.99,,,0.00,weatherlink.com 1.10,2013-04-10 22:17:00,
2013-04-10 17:32:00,81.4,68.0,29.71,SSE,154,12.0,-999.0,63,-99.99,,,0.00,weatherlink.com 1.10,2013-04-10 22:32:00,
2013-04-10 17:47:00,80.9,67.0,29.70,SSE,153,12.0,-999.0,62,-99.99,,,0.00,weatherlink.com 1.10,2013-04-10 22:47:00,
2013-04-10 18:02:00,80.6,66.0,29.68,SSE,159,11.0,-999.0,62,-99.99,,,0.00,weatherlink.com 1.10,2013-04-10 23:02:00,
2013-04-10 18:17:00,80.2,66.0,29.68,SSE,161,7.0,-999.0,62,-99.99,,,0.00,weatherlink.com 1.10,2013-04-10 23:17:00,
2013-04-10 18:32:00,79.6,66.0,29.68,SE,144,10.0,-999.0,63,-99.99,,,0.00,weatherlink.com 1.10,2013-04-10 23:32:00,
2013-04-10 18:47:00,78.7,66.0,29.66,SE,138,15.0,-999.0,65,-99.99,,,0.00,weatherlink.com 1.10,2013-04-10 23:47:00,
2013-04-10 19:17:00,78.4,65.0,29.66,SSE,152,8.0,-999.0,63,-99.99,,,0.00,weatherlink.com 1.10,2013-04-11 00:17:00,
2013-04-10 19:32:00,78.2,65.0,29.67,SE,138,10.0,-999.0,63,-99.99,,,0.00,weatherlink.com 1.10,2013-04-11 00:32:00,
2013-04-10 19:47:00,78.0,64.0,29.65,SSE,148,17.0,-999.0,63,-99.99,,,0.00,weatherlink.com 1.10,2013-04-11 00:47:00,
2013-04-10 20:02:00,78.3,64.0,29.65,SE,142,16.0,-999.0,62,-99.99,,,0.00,weatherlink.com 1.10,2013-04-11 01:02:00,
2013-04-10 20:17:00,78.0,64.0,29.64,SSE,164,12.0,-999.0,63,-99.99,,,0.00,weatherlink.com 1.10,2013-04-11 01:17:00,
2013-04-10 20:32:00,77.9,64.0,29.65,SSE,152,10.0,-999.0,63,-99.99,,,0.00,weatherlink.com 1.10,2013-04-11 01:32:00,
2013-04-10 20:47:00,77.9,64.0,29.67,SSE,157,11.0,-999.0,62,-99.99,,,0.00,weatherlink.com 1.10,2013-04-11 01:47:00,
2013-04-10 21:02:00,77.5,64.0,29.68,SSE,156,10.0,-999.0,63,-99.99,,,0.00,weatherlink.com 1.10,2013-04-11 02:02:00,
2013-04-10 21:17:00,77.4,64.0,29.68,South,171,11.0,-999.0,63,-99.99,,,0.00,weatherlink.com 1.10,2013-04-11 02:17:00,